Wind_Speed
41 41 36 32 38 41 42 41 39 32 35 41 38 32 27 32 29 24 24 26 25 23 24 23 26 25 25 27 28 27 28 28 28 30 36 33 31 34 35 34 33 38 37 41
43 41 35 39 41 41 44 44 38 35 37 42 41 35 26 29 30 29 27 26 24 24 22 23 26 25 27 27 26 26 26 27 28 32 37 30 32 31 32 30 31 32 34 34
43 40 40 42 41 41 43 45 40 41 43 41 44 38 28 27 29 31 30 28 26 25 22 24 25 26 27 26 25 24 25 26 28 34 33 29 29 28 26 25 27 24 21 11
47 45 43 42 43 42 46 40 43 44 44 43 44 43 26 26 30 32 26 24 25 24 22 23 25 26 23 23 23 23 23 25 28 34 29 28 27 25 22 23 22 16 13 7
40 42 45 49 46 48 49 47 46 45 43 45 43 41 28 22 28 30 26 24 23 21 21 21 22 22 21 21 21 21 22 25 28 32 26 25 24 23 18 20 20 12 9 4
48 47 46 39 33 42 49 49 50 47 44 51 40 40 36 21 26 26 26 23 23 21 21 20 19 18 19 19 19 19 22 24 27 27 22 21 22 22 18 17 18 10 10 11
48 50 50 48 45 41 39 46 50 51 51 52 44 39 34 22 23 23 27 25 24 23 22 20 18 17 16 16 16 19 21 22 24 22 20 18 21 20 20 17 17 14 12 11
54 56 55 50 46 42 48 39 40 45 48 49 48 44 35 24 26 27 25 23 23 23 23 21 18 17 16 15 16 18 19 19 21 20 18 18 20 18 19 21 19 17 17 16
64 60 58 59 48 48 44 45 36 38 40 44 47 48 41 23 24 27 21 22 23 22 20 19 17 17 15 15 16 15 16 15 19 16 15 16 16 16 15 18 21 22 21 22
68 67 60 61 56 54 48 42 40 40 42 40 40 38 31 28 27 28 24 22 22 21 19 18 18 16 14 15 15 13 13 13 17 14 13 14 13 13 13 16 19 19 21 24
69 71 61 63 64 61 47 47 48 41 46 42 39 33 24 22 31 27 20 20 22 21 19 17 15 15 15 15 13 10 9 11 16 15 13 12 13 14 11 16 15 15 19 22
59 61 70 65 61 60 50 49 47 52 40 45 41 30 15 17 27 32 25 25 22 20 19 18 16 14 14 15 13 10 7 8 13 11 9 8 9 12 11 11 13 10 17 15
63 58 53 61 59 51 48 55 53 55 49 43 45 41 29 19 25 27 24 25 24 22 20 19 16 15 15 15 13 10 6 4 10 8 6 8 11 13 12 11 8 10 15 1
60 65 58 51 39 55 58 45 51 51 51 49 46 42 33 32 28 29 29 27 22 22 23 20 17 16 14 15 14 11 7 1 5 6 5 8 11 12 9 9 6 5 5 6
57 63 64 62 53 46 48 61 52 52 53 54 50 49 39 32 35 31 30 31 25 21 19 17 18 17 15 15 15 12 9 3 2 4 4 6 8 11 14 8 6 9 4 8
46 57 57 64 63 62 50 53 57 59 53 51 57 52 41 40 36 40 37 36 36 30 24 20 18 18 16 15 14 13 11 6 4 3 3 4 4 7 11 12 15 7 7 8
37 43 45 51 54 67 63 56 59 62 56 52 54 55 45 38 41 39 39 37 38 35 31 26 24 19 18 16 15 15 13 10 7 5 3 2 3 5 5 7 9 14 8 8
30 33 29 31 37 59 70 64 52 58 48 51 53 59 50 44 39 41 40 38 39 32 32 31 30 22 21 18 17 17 16 13 9 8 5 3 1 1 3 5 6 9 10 10
24 30 34 33 34 40 47 58 73 73 51 59 50 57 50 47 42 44 45 39 37 33 35 30 30 25 22 19 18 18 18 15 12 9 8 6 4 2 1 2 3 4 8 9
18 30 28 28 32 30 29 35 45 64 73 64 67 55 51 49 43 43 45 43 40 37 34 35 34 29 24 22 20 20 20 17 14 10 10 7 6 4 3 3 2 1 1 1
15 20 29 30 30 25 15 23 31 46 61 70 67 50 51 50 42 37 48 47 43 41 36 33 36 34 26 21 21 21 21 19 15 13 12 9 8 7 6 5 4 5 4 3
18 20 30 30 31 20 16 23 24 30 43 47 56 66 59 50 46 46 49 51 48 44 40 36 33 35 27 23 22 23 22 19 17 14 13 11 10 9 7 6 6 5 3 2
26 26 28 32 21 16 16 17 18 18 25 39 50 63 72 67 51 52 48 50 49 48 45 41 35 36 29 23 24 24 23 21 18 15 15 13 11 10 7 7 6 5 4 3
26 24 24 29 17 17 18 20 20 21 17 23 37 49 58 62 64 58 47 49 51 51 49 45 40 37 31 25 25 25 25 24 20 17 15 14 12 11 8 7 7 7 5 4
24 29 23 25 22 23 22 23 25 24 22 21 26 40 48 50 54 62 58 52 52 55 50 47 44 40 34 29 26 26 27 24 20 17 16 14 12 11 10 10 9 7 5 3
21 20 26 22 25 29 28 29 30 24 19 21 25 33 41 46 52 59 61 54 53 55 50 47 47 43 36 30 28 26 27 25 21 18 16 14 13 12 11 9 7 5 3 4
Wind_Direction
268 267 273 269 264 260 262 264 262 263 263 261 263 257 253 259 263 254 252 252 253 255 255 257 261 265 270 272 274 277 282 288 291 293 294 292 286 292 298 300 296 292 286 283
266 266 267 265 263 262 261 262 263 260 261 262 259 258 251 251 257 258 254 256 257 254 254 258 264 270 273 274 274 278 286 288 291 295 296 284 287 298 299 301 303 296 297 290
267 265 260 259 258 260 261 262 262 259 258 257 260 256 249 252 254 253 251 253 256 258 260 265 270 271 270 272 274 280 284 288 293 294 292 279 289 295 301 306 308 297 302 300
261 261 262 260 257 255 253 259 256 253 252 251 257 256 244 245 252 253 257 257 258 260 261 263 264 265 265 268 274 279 282 289 293 295 286 285 289 297 309 303 310 305 298 283
262 259 257 254 256 253 250 247 249 250 252 251 251 257 244 235 249 252 251 250 253 254 252 253 256 260 263 267 274 279 287 290 295 297 278 289 294 299 308 298 303 295 295 266
268 263 260 258 259 260 255 251 249 249 250 248 245 250 247 242 244 246 250 246 247 243 246 247 251 257 262 267 273 284 288 292 298 294 276 290 304 302 298 295 290 285 258 244
275 269 268 262 261 257 254 251 249 250 246 249 245 242 244 239 245 241 241 236 240 242 242 245 249 255 259 266 276 281 286 294 300 290 274 298 305 311 295 283 281 283 268 251
271 268 270 272 273 273 255 250 246 248 243 247 246 242 241 239 243 241 240 233 235 236 241 244 250 254 257 265 273 275 285 300 306 280 280 302 307 311 297 281 273 265 262 256
270 267 266 269 267 268 269 259 255 251 243 243 243 241 242 240 230 240 237 233 233 236 241 247 251 256 257 263 265 276 288 316 304 295 303 306 306 308 311 290 286 283 272 263
258 260 259 263 263 263 267 263 256 248 246 244 244 245 242 235 220 229 237 233 237 236 236 241 248 252 255 258 261 276 295 322 310 312 316 310 300 296 302 302 292 282 281 272
253 253 251 251 256 263 257 257 263 259 246 246 246 242 244 220 215 217 220 221 230 231 232 232 237 245 249 252 257 269 297 325 315 312 313 315 300 289 294 304 310 294 290 284
250 255 249 244 250 253 244 246 254 255 253 247 247 233 218 199 214 213 221 222 222 223 231 232 232 239 245 249 253 260 285 329 320 314 334 346 329 319 315 308 316 299 306 286
245 240 243 249 237 241 248 245 246 252 251 241 239 232 219 192 203 199 198 207 210 214 226 235 237 241 243 244 245 251 267 335 325 324 9 6 342 335 324 312 319 324 344 14
243 241 236 232 233 238 232 246 239 239 243 242 241 238 221 214 205 200 186 196 205 217 222 227 235 236 240 247 240 241 251 295 330 318 0 6 348 346 343 352 360 11 358 123
244 242 239 231 224 226 231 225 220 229 235 238 239 238 226 218 214 207 209 206 207 208 214 225 239 240 237 241 243 236 239 217 302 303 346 17 9 37 36 52 47 36 101 159
247 245 242 239 232 226 214 219 224 223 227 234 236 241 230 221 213 214 208 216 215 212 210 214 224 237 237 241 243 235 234 217 222 261 314 4 21 36 41 45 48 64 85 166
255 246 244 245 235 226 221 206 214 230 234 230 235 240 234 223 218 212 220 217 233 231 219 220 222 227 229 235 237 235 228 222 212 230 246 308 13 44 41 30 59 62 83 102
257 245 237 241 238 233 226 221 220 215 218 226 227 240 232 226 223 216 211 217 223 227 226 223 226 227 224 222 233 235 230 226 212 222 217 216 200 28 42 47 66 88 87 86
248 222 220 235 239 242 234 229 230 236 227 222 224 231 230 223 223 215 212 214 222 223 227 225 229 228 228 223 223 229 227 223 217 218 217 204 197 211 213 12 52 80 105 109
245 201 216 239 240 247 242 235 227 227 225 216 221 223 228 223 218 223 214 213 219 219 223 226 228 230 229 221 223 222 220 217 216 214 218 205 205 220 213 208 224 267 12 96
215 217 225 230 248 247 250 246 226 226 231 234 233 224 226 221 210 226 220 215 220 216 217 222 227 226 225 221 225 224 222 213 210 208 214 206 211 222 228 231 225 213 205 236
222 221 221 235 237 251 224 234 228 218 224 237 238 236 227 216 224 232 223 218 218 218 212 218 223 221 218 218 220 224 222 214 208 205 210 208 215 218 229 232 237 238 230 220
219 223 226 229 228 224 221 217 220 225 222 222 224 228 234 229 224 219 213 215 216 216 211 214 216 219 213 215 219 222 219 213 207 202 208 204 213 214 212 225 218 205 205 212
223 229 235 232 228 228 227 228 228 229 231 231 218 218 221 225 209 214 218 212 214 213 210 211 214 214 207 212 215 217 217 211 205 199 204 200 206 209 201 206 204 202 214 226
235 242 244 222 230 233 228 232 241 240 232 234 229 216 217 215 208 210 215 211 210 213 209 207 211 212 206 209 207 214 216 208 204 193 196 195 197 203 194 192 200 210 224 256
237 245 237 224 234 234 235 242 240 242 235 242 233 229 216 208 202 203 208 209 208 210 206 205 208 212 206 207 205 211 215 201 192 185 188 191 192 197 194 191 204 214 242 283
Height
5768 5770 5775 5775 5773 5771 5771 5773 5774 5777 5773 5773 5775 5781 5784 5781 5782 5785 5784 5785 5788 5790 5791 5793 5793 5794 5794 5793 5793 5792 5791 5790 5788 5787 5784 5780 5777 5773 5767 5763 5758 5753 5749 5745
5757 5760 5764 5762 5761 5762 5762 5763 5767 5769 5763 5765 5768 5773 5778 5777 5776 5776 5777 5779 5781 5783 5784 5785 5785 5786 5786 5786 5786 5785 5784 5783 5781 5779 5775 5772 5769 5765 5760 5755 5751 5745 5739 5733
5746 5750 5749 5749 5750 5752 5752 5752 5756 5757 5755 5756 5757 5763 5770 5771 5770 5768 5769 5772 5774 5776 5777 5778 5779 5779 5779 5779 5779 5779 5778 5776 5774 5771 5767 5765 5762 5758 5754 5748 5744 5739 5733 5729
5733 5737 5738 5739 5740 5739 5739 5743 5741 5742 5742 5748 5748 5750 5763 5764 5762 5761 5763 5765 5767 5768 5770 5771 5772 5772 5773 5773 5773 5773 5773 5770 5768 5763 5759 5757 5755 5751 5747 5743 5740 5735 5731 5727
5729 5726 5725 5725 5727 5724 5727 5728 5729 5731 5734 5735 5743 5743 5752 5757 5755 5755 5756 5759 5761 5763 5764 5765 5765 5766 5767 5767 5768 5768 5767 5765 5761 5756 5753 5751 5748 5744 5741 5739 5737 5732 5731 5728
5716 5715 5715 5716 5714 5712 5714 5717 5719 5720 5722 5722 5733 5735 5739 5747 5747 5749 5750 5752 5755 5756 5758 5758 5759 5760 5761 5762 5762 5762 5761 5759 5754 5750 5747 5745 5742 5739 5736 5735 5733 5730 5728 5729
5702 5704 5703 5704 5703 5703 5702 5703 5706 5708 5712 5713 5722 5725 5730 5736 5738 5740 5742 5745 5748 5750 5752 5752 5754 5755 5755 5756 5756 5756 5756 5753 5748 5743 5742 5739 5736 5733 5732 5731 5729 5728 5727 5725
5685 5689 5692 5696 5693 5691 5693 5693 5695 5697 5701 5704 5710 5714 5723 5728 5730 5731 5735 5739 5741 5744 5747 5748 5748 5749 5750 5750 5751 5751 5751 5747 5742 5739 5736 5734 5731 5728 5727 5725 5724 5723 5724 5725
5665 5671 5677 5676 5682 5679 5684 5684 5692 5687 5689 5691 5696 5705 5713 5718 5723 5725 5728 5732 5735 5737 5740 5742 5743 5744 5745 5745 5746 5746 5745 5740 5737 5733 5730 5728 5726 5724 5722 5721 5719 5717 5717 5717
5641 5646 5662 5663 5663 5665 5670 5677 5677 5678 5680 5682 5686 5693 5703 5706 5712 5717 5721 5725 5728 5731 5733 5735 5737 5739 5740 5741 5741 5740 5739 5736 5733 5729 5727 5724 5722 5720 5717 5716 5714 5712 5710 5710
5623 5625 5643 5644 5647 5650 5658 5660 5666 5669 5672 5674 5679 5686 5694 5697 5702 5709 5713 5717 5721 5724 5726 5728 5730 5733 5735 5736 5736 5735 5733 5732 5730 5727 5724 5721 5718 5716 5713 5712 5709 5707 5704 5702
5605 5607 5614 5626 5633 5637 5642 5646 5651 5655 5664 5667 5670 5681 5685 5688 5694 5697 5705 5710 5714 5718 5720 5722 5723 5726 5729 5731 5731 5731 5730 5729 5728 5725 5721 5718 5716 5714 5711 5709 5707 5703 5699 5696
5586 5591 5597 5606 5620 5625 5628 5630 5638 5644 5653 5656 5660 5671 5677 5682 5683 5688 5695 5701 5705 5709 5713 5716 5719 5721 5723 5725 5727 5727 5728 5726 5725 5723 5719 5717 5715 5712 5709 5707 5705 5702 5698 5695
5566 5572 5581 5592 5601 5602 5612 5616 5620 5629 5638 5647 5650 5658 5668 5673 5677 5681 5685 5692 5697 5702 5706 5710 5713 5715 5718 5720 5722 5724 5725 5723 5723 5721 5718 5716 5714 5710 5707 5705 5704 5702 5700 5700
5549 5552 5562 5573 5585 5587 5593 5605 5606 5614 5624 5631 5640 5644 5660 5664 5670 5675 5682 5687 5690 5695 5700 5705 5709 5711 5713 5715 5718 5720 5721 5720 5720 5720 5717 5715 5714 5711 5708 5705 5704 5703 5703 5703
5535 5537 5545 5552 5569 5576 5578 5589 5598 5601 5609 5620 5626 5631 5649 5655 5662 5668 5674 5680 5684 5687 5692 5697 5702 5706 5708 5711 5713 5716 5717 5717 5717 5718 5716 5715 5714 5712 5710 5709 5706 5703 5704 5706
5523 5526 5533 5537 5552 5559 5563 5576 5585 5590 5596 5606 5612 5620 5634 5643 5651 5658 5663 5668 5674 5681 5686 5691 5696 5699 5702 5706 5708 5712 5713 5714 5714 5716 5715 5714 5714 5713 5712 5711 5708 5706 5706 5707
5514 5518 5524 5529 5536 5537 5555 5565 5568 5578 5587 5593 5601 5603 5620 5631 5640 5648 5654 5660 5666 5674 5679 5685 5690 5694 5696 5699 5703 5707 5709 5711 5711 5713 5714 5713 5713 5713 5713 5712 5711 5709 5709 5709
5505 5510 5517 5521 5525 5531 5538 5554 5561 5564 5574 5582 5589 5594 5607 5620 5630 5636 5645 5653 5660 5668 5672 5679 5684 5689 5693 5695 5698 5702 5705 5707 5707 5710 5711 5712 5712 5713 5712 5712 5712 5712 5711 5711
5496 5503 5510 5514 5517 5521 5530 5535 5543 5549 5558 5569 5576 5584 5593 5608 5619 5630 5635 5643 5653 5660 5665 5671 5677 5683 5688 5691 5695 5698 5700 5703 5704 5706 5709 5709 5710 5711 5711 5712 5713 5712 5713 5713
5496 5500 5503 5508 5510 5517 5527 5528 5533 5539 5549 5553 5560 5572 5583 5598 5609 5621 5625 5632 5644 5651 5657 5664 5670 5678 5683 5687 5691 5695 5697 5699 5701 5703 5706 5707 5708 5709 5710 5711 5712 5713 5713 5714
5490 5495 5499 5504 5505 5517 5520 5519 5525 5531 5534 5536 5546 5557 5570 5588 5598 5608 5615 5622 5635 5643 5651 5656 5663 5672 5677 5682 5686 5690 5694 5696 5698 5700 5703 5704 5705 5707 5708 5709 5710 5711 5712 5712
5486 5491 5493 5499 5507 5511 5512 5515 5517 5522 5527 5532 5539 5547 5555 5570 5588 5599 5603 5614 5625 5636 5643 5649 5657 5665 5671 5676 5681 5686 5690 5692 5695 5697 5699 5701 5703 5704 5706 5707 5709 5710 5710 5711
5478 5483 5487 5493 5502 5503 5506 5509 5512 5516 5520 5524 5529 5536 5543 5555 5576 5588 5594 5605 5616 5626 5634 5642 5651 5659 5665 5670 5675 5681 5685 5688 5691 5693 5696 5698 5701 5702 5704 5706 5707 5708 5709 5710
5476 5478 5482 5490 5493 5496 5499 5502 5504 5508 5513 5516 5520 5525 5531 5543 5560 5574 5583 5594 5606 5616 5625 5634 5643 5653 5658 5663 5669 5676 5681 5684 5688 5690 5693 5696 5698 5701 5702 5704 5706 5707 5708 5709
5471 5473 5477 5483 5483 5485 5491 5494 5496 5503 5507 5509 5513 5516 5522 5534 5546 5559 5570 5583 5595 5606 5616 5627 5636 5645 5652 5658 5664 5671 5677 5680 5684 5687 5690 5693 5696 5698 5701 5702 5704 5705 5707 5707